1515902401.13,35364,7.81,73362.8,-15.39,-16.41,-16.59,0,*60
1515902402.37,35365,7.81,73362.8,-15.41,-16.45,-16.65,0,*65
1515902403.62,35366,7.81,73360.5,-15.41,-16.45,-16.65,0,*66
1515902404.84,35367,7.81,73358.3,-15.41,-16.45,-16.59,0,*68
1515902406.11,35368,7.81,73358.8,-15.39,-16.31,-16.59,0,*6B
1515902407.37,35369,7.81,73362.3,-15.39,-16.31,-16.55,0,*66
1515902408.59,35370,7.81,73358.0,-15.41,-16.45,-16.59,0,*6E
1515902409.82,35371,7.81,73362.8,-15.41,-16.37,-16.59,0,*6A
1515902411.08,35372,7.81,73358.5,-15.39,-16.31,-16.55,0,*6C
1515902412.32,35373,7.81,73360.8,-15.39,-16.41,-16.45,0,*6B
1515902413.54,35374,7.81,73358.0,-15.41,-16.37,-16.55,0,*63
1515902414.78,35375,7.81,73356.5,-15.39,-16.41,-16.55,0,*6C
1515902416.03,35376,7.81,73360.3,-15.39,-16.41,-16.55,0,*6F
1515902417.27,35377,7.81,73362.3,-15.39,-16.41,-16.45,0,*6F
1515902418.53,35378,7.81,73360.3,-15.39,-16.41,-16.69,0,*6E
1515902419.76,35379,7.81,73360.3,-15.41,-16.45,-16.59,0,*67
1515902421.0,35380,7.81,73360.3,-15.39,-16.41,-16.55,0,*66
1515902422.27,35381,7.81,73360.3,-15.39,-16.41,-16.69,0,*68
1515902423.5,35382,7.81,73360.8,-15.41,-16.37,-16.75,0,*68
1515902424.75,35383,7.81,73360.5,-15.39,-16.41,-16.59,0,*69
1515902425.97,35384,7.81,73360.5,-15.41,-16.45,-16.59,0,*65
1515902427.2,35385,7.81,73360.5,-15.39,-16.45,-16.45,0,*66
1515902428.45,35386,7.81,73360.3,-15.39,-16.45,-16.59,0,*68
1515902429.69,35387,7.81,73358.5,-15.39,-16.45,-16.59,0,*69
1515902430.95,35388,7.81,73362.5,-15.39,-16.31,-16.55,0,*69
1515902432.22,35389,7.81,73360.3,-15.39,-16.41,-16.69,0,*60
1515902433.47,35390,7.81,73362.5,-15.39,-16.45,-16.59,0,*6F
1515902434.71,35391,7.81,73360.0,-15.39,-16.41,-16.59,0,*6A
1515902435.96,35392,7.81,73360.5,-15.41,-16.51,-16.59,0,*67
1515902437.21,35393,7.81,73362.3,-15.39,-16.41,-16.59,0,*68
1515902438.45,35394,7.81,73360.5,-15.41,-16.37,-16.65,0,*6E
1515902439.7,35395,7.81,73360.3,-15.39,-16.41,-16.55,0,*62
1515902440.94,35396,7.81,73362.3,-15.39,-16.41,-16.55,0,*61
1515902442.21,35397,7.81,73362.3,-15.39,-16.31,-16.55,0,*67
1515902443.45,35398,7.81,73362.0,-15.39,-16.41,-16.55,0,*6F
1515902444.71,35399,7.81,73358.5,-15.39,-16.31,-16.55,0,*69
1515902445.97,35400,7.81,73358.3,-15.39,-16.31,-16.55,0,*6E
1515902447.22,35401,7.81,73358.8,-15.39,-16.45,-16.59,0,*60
1515902448.47,35402,7.81,73360.8,-15.39,-16.41,-16.59,0,*67
1515902449.73,35403,7.81,73360.5,-15.39,-16.31,-16.55,0,*6D
1515902450.99,35404,7.81,73362.0,-15.39,-16.31,-16.55,0,*6A
1515902452.26,35405,7.81,73360.3,-15.39,-16.27,-16.55,0,*6C
1515902453.52,35406,7.81,73362.8,-15.39,-16.31,-16.55,0,*68
1515902454.77,35407,7.81,73358.8,-15.39,-16.31,-16.45,0,*68
1515902456.03,35408,7.81,73362.8,-15.39,-16.31,-16.55,0,*66
1515902457.29,35409,7.81,73362.0,-15.39,-16.31,-16.55,0,*67
1515902458.55,35410,7.81,73366.8,-15.39,-16.31,-16.45,0,*6E
1515902459.8,35411,7.81,73360.3,-15.39,-16.31,-16.45,0,*6F
1515902461.06,35412,7.81,73362.8,-15.39,-16.31,-16.45,0,*6C
1515902462.32,35413,7.81,73360.5,-15.39,-16.31,-16.55,0,*6C
1515902463.58,35414,7.81,73360.0,-15.39,-16.31,-16.41,0,*6E
1515902464.81,35415,7.81,73360.3,-15.37,-16.31,-16.45,0,*65
1515902466.04,35416,7.81,73364.0,-15.37,-16.31,-16.45,0,*66
1515902467.28,35417,7.81,73362.8,-15.37,-16.31,-16.55,0,*66
1515902468.5,35418,7.81,73362.8,-15.37,-16.41,-16.41,0,*6B
1515902469.76,35419,7.81,73362.0,-15.39,-16.31,-16.45,0,*67
1515902471.02,35420,7.81,73360.0,-15.39,-16.31,-16.55,0,*6C
1515902472.25,35421,7.81,73362.8,-15.37,-16.31,-16.55,0,*63
1515902473.47,35422,7.81,73360.8,-15.37,-16.41,-16.45,0,*66
1515902474.71,35423,7.81,73362.3,-15.39,-16.41,-16.55,0,*68
1515902475.95,35424,7.81,73362.0,-15.37,-16.31,-16.55,0,*66
1515902477.19,35425,7.81,73364.5,-15.37,-16.31,-16.59,0,*6B
1515902478.42,35426,7.81,73364.0,-15.41,-16.45,-16.59,0,*6A
1515902479.66,35427,7.81,73360.0,-15.37,-16.41,-16.69,0,*6D
1515902480.91,35428,7.81,73362.0,-15.37,-16.31,-16.59,0,*66
1515902482.15,35429,7.81,73360.3,-15.37,-16.45,-16.69,0,*67
1515902483.41,35430,7.81,73362.0,-15.35,-16.27,-16.55,0,*66
1515902484.64,35431,7.81,73364.8,-15.37,-16.55,-16.59,0,*6C
1515902485.86,35432,7.81,73364.8,-15.37,-16.41,-16.59,0,*6A
1515902487.12,35433,7.81,73362.0,-15.39,-16.45,-16.69,0,*62
1515902488.39,35434,7.81,73364.8,-15.39,-16.55,-16.69,0,*64
1515902489.66,35435,7.81,73360.8,-15.35,-16.37,-16.65,0,*61
1515902490.88,35436,7.81,73360.8,-15.37,-16.45,-16.59,0,*6A
1515902492.12,35437,7.81,73360.8,-15.37,-16.55,-16.69,0,*69
1515902493.35,35438,7.81,73362.5,-15.37,-16.45,-16.75,0,*6A
1515902494.57,35439,7.81,73360.5,-15.37,-16.45,-16.75,0,*6B
1515902495.81,35440,7.81,73364.8,-15.39,-16.55,-16.75,0,*6A
1515902497.08,35441,7.81,73360.8,-15.39,-16.55,-16.69,0,*66
1515902498.33,35442,7.81,73360.0,-15.39,-16.59,-16.75,0,*64
1515902499.58,35443,7.81,73360.8,-15.37,-16.69,-16.75,0,*68
1515902500.79,35444,7.81,73364.0,-15.37,-16.59,-16.89,0,*6F
1515902502.01,35445,7.81,73366.3,-15.37,-16.59,-16.97,0,*61
1515902503.25,35446,7.81,73362.3,-15.37,-16.69,-16.83,0,*64
1515902504.47,35447,7.81,73364.8,-15.37,-16.59,-16.83,0,*66
1515902505.72,35448,7.81,73366.8,-15.37,-16.69,-16.83,0,*6A
1515902506.95,35449,7.81,73362.0,-15.37,-16.69,-16.89,0,*61
1515902508.17,35450,7.81,73364.3,-15.37,-16.75,-16.89,0,*64
1515902509.38,35451,7.81,73362.0,-15.37,-16.75,-16.89,0,*65
1515902510.63,35452,7.81,73364.0,-15.39,-16.75,-16.97,0,*67
1515902511.86,35453,7.81,73364.0,-15.39,-16.83,-16.89,0,*60
1515902513.1,35454,7.81,73364.8,-15.39,-16.83,-16.97,0,*68
1515902514.34,35455,7.81,73366.8,-15.39,-16.83,-16.89,0,*66
1515902515.58,35456,7.81,73364.8,-15.39,-16.75,-16.97,0,*63
1515902516.82,35457,7.81,73362.0,-15.39,-16.83,-16.97,0,*6B
1515902518.06,35458,7.81,73362.8,-15.39,-16.75,-16.89,0,*62
1515902519.33,35459,7.81,73362.5,-15.39,-16.83,-17.03,0,*69
1515902520.6,35460,7.81,73362.0,-15.39,-16.75,-17.03,0,*6A
1515902521.86,35461,7.81,73366.3,-15.39,-16.83,-17.03,0,*62
1515902523.13,35462,7.81,73364.5,-15.39,-16.83,-17.03,0,*61
1515902524.38,35463,7.81,73364.0,-15.41,-16.89,-17.07,0,*61
1515902525.65,35464,7.81,73366.8,-15.39,-16.89,-17.11,0,*6E
1515902526.91,35465,7.81,73360.3,-15.39,-16.89,-17.11,0,*6F
1515902528.18,35466,7.81,73362.5,-15.39,-16.89,-17.11,0,*6C
1515902529.44,35467,7.81,73364.0,-15.39,-16.97,-17.11,0,*62
1515902530.71,35468,7.81,73364.0,-15.39,-16.89,-17.11,0,*62
1515902531.97,35469,7.81,73362.3,-15.41,-17.03,-17.17,0,*69
1515902533.24,35470,7.81,73360.3,-15.41,-17.03,-17.17,0,*61
1515902534.52,35471,7.81,73360.8,-15.41,-17.07,-17.07,0,*65
1515902535.79,35472,7.81,73360.3,-15.39,-16.89,-17.11,0,*69
1515902537.05,35473,7.81,73364.8,-15.39,-16.97,-17.11,0,*67
1515902538.29,35474,7.81,73360.5,-15.41,-16.93,-17.17,0,*6D
1515902539.56,35475,7.81,73364.8,-15.41,-17.03,-17.17,0,*64
1515902540.82,35476,7.81,73360.5,-15.41,-17.03,-17.17,0,*67
1515902542.06,35477,7.81,73366.5,-15.41,-16.93,-17.17,0,*6E
1515902543.3,35478,7.81,73360.0,-15.41,-16.89,-17.17,0,*6A
1515902544.57,35479,7.81,73364.0,-15.41,-17.03,-17.17,0,*68
1515902545.82,35480,7.81,73364.3,-15.41,-16.93,-17.07,0,*67
1515902547.08,35481,7.81,73360.8,-15.43,-16.89,-17.17,0,*6E
1515902548.35,35482,7.81,73364.5,-15.43,-16.93,-17.07,0,*67
1515902549.61,35483,7.81,73360.3,-15.43,-16.89,-17.03,0,*69
1515902550.86,35484,7.81,73364.0,-15.45,-16.93,-17.07,0,*67
1515902552.12,35485,7.81,73362.0,-15.43,-16.89,-17.03,0,*6F
1515902553.39,35486,7.81,73362.0,-15.43,-16.75,-17.03,0,*6F
1515902554.66,35487,7.81,73360.8,-15.43,-16.65,-16.89,0,*6C
1515902555.92,35488,7.81,73362.3,-15.43,-16.65,-16.89,0,*63
1515902557.16,35489,7.81,73362.3,-15.43,-16.59,-16.89,0,*6D
1515902558.43,35490,7.81,73362.8,-15.43,-16.65,-16.79,0,*65
1515902559.66,35491,7.81,73360.3,-15.43,-16.75,-16.89,0,*6A
1515902560.93,35492,7.81,73362.5,-15.43,-16.65,-16.89,0,*68
1515902562.19,35493,7.81,73360.0,-15.43,-16.65,-16.89,0,*69
1515902563.43,35494,7.81,73362.3,-15.43,-16.75,-16.89,0,*6F
1515902564.67,35495,7.81,73360.8,-15.43,-16.75,-16.79,0,*61
1515902565.94,35496,7.81,73360.3,-15.43,-16.75,-17.03,0,*6E
1515902567.18,35497,7.81,73362.3,-15.43,-16.79,-16.93,0,*6B
1515902568.39,35498,7.81,73360.8,-15.45,-16.79,-16.93,0,*62
1515902569.66,35499,7.81,73360.0,-15.43,-16.79,-17.03,0,*6D
1515902570.92,35500,7.81,73362.5,-15.43,-16.89,-17.03,0,*63
1515902572.16,35501,7.81,73360.8,-15.43,-16.79,-16.93,0,*65
1515902573.4,35502,7.81,73360.3,-15.45,-16.93,-17.11,0,*6F
1515902574.67,35503,7.81,73360.8,-15.43,-16.79,-17.07,0,*6B
1515902575.94,35504,7.81,73362.0,-15.43,-16.93,-17.07,0,*68
1515902577.2,35505,7.81,73362.8,-15.43,-16.93,-17.17,0,*68
1515902578.46,35506,7.81,73364.0,-15.43,-16.93,-17.17,0,*6B
1515902579.75,35507,7.81,73358.5,-15.43,-17.03,-17.07,0,*63
1515902581.04,35508,7.81,73360.3,-15.43,-17.03,-17.17,0,*6D
1515902582.33,35509,7.81,73362.5,-15.43,-17.03,-17.21,0,*69
1515902583.6,35510,7.81,73358.5,-15.45,-17.07,-17.25,0,*67
1515902584.87,35511,7.81,73358.3,-15.45,-17.07,-17.25,0,*66
1515902586.13,35512,7.81,73362.0,-15.45,-17.07,-17.21,0,*61
1515902587.38,35513,7.81,73362.5,-15.45,-16.97,-17.21,0,*68
1515902588.64,35514,7.81,73360.3,-15.45,-17.11,-17.25,0,*64
1515902589.92,35515,7.81,73364.0,-15.47,-17.11,-17.25,0,*67
1515902591.21,35516,7.81,73362.8,-15.43,-17.11,-17.21,0,*64
1515902592.45,35517,7.81,73366.0,-15.45,-16.97,-17.21,0,*6C
1515902593.72,35518,7.81,73362.8,-15.47,-16.93,-17.21,0,*65
1515902595.01,35519,7.81,73360.0,-15.47,-17.07,-17.21,0,*68
1515902596.31,35520,7.81,73358.8,-15.47,-17.07,-17.11,0,*61
1515902597.57,35521,7.81,73360.0,-15.47,-16.97,-17.11,0,*68
1515902598.84,35522,7.81,73362.5,-15.49,-17.03,-17.17,0,*6F
1515902600.11,35523,7.81,73364.0,-15.47,-16.93,-17.11,0,*6E
1515902601.35,35524,7.81,73360.3,-15.49,-16.97,-17.17,0,*65
1515902602.62,35525,7.81,73360.3,-15.47,-16.83,-17.11,0,*69
1515902603.86,35526,7.81,73360.0,-15.47,-16.83,-16.97,0,*65
1515902605.12,35527,7.81,73362.3,-15.47,-16.93,-17.11,0,*6A
1515902606.37,35528,7.81,73362.5,-15.47,-16.83,-16.97,0,*6B
1515902607.61,35529,7.81,73362.0,-15.49,-16.97,-17.03,0,*6D
1515902608.86,35530,7.81,73356.3,-15.49,-16.89,-17.03,0,*6A
1515902610.11,35531,7.81,73362.5,-15.49,-16.89,-17.03,0,*6B
1515902611.35,35532,7.81,73362.5,-15.47,-16.83,-16.97,0,*60
1515902612.62,35533,7.81,73360.8,-15.47,-16.83,-17.07,0,*69
1515902613.9,35534,7.81,73360.3,-15.47,-16.79,-17.07,0,*6B
1515902615.15,35535,7.81,73364.5,-15.49,-16.83,-17.03,0,*65
1515902616.43,35536,7.81,73362.8,-15.47,-16.83,-17.07,0,*6C
1515902617.67,35537,7.81,73360.3,-15.47,-16.79,-16.97,0,*60
1515902618.94,35538,7.81,73360.8,-15.47,-16.83,-17.07,0,*62
1515902620.19,35539,7.81,73364.0,-15.47,-16.79,-16.97,0,*6E
1515902621.43,35540,7.81,73358.5,-15.49,-16.89,-17.11,0,*6E
1515902622.65,35541,7.81,73360.0,-15.49,-16.89,-16.97,0,*60
1515902623.91,35542,7.81,73362.8,-15.47,-16.69,-16.93,0,*67
1515902625.18,35543,7.81,73356.5,-15.47,-16.69,-16.93,0,*66
1515902626.44,35544,7.81,73362.5,-15.47,-16.65,-16.93,0,*6D
1515902627.66,35545,7.81,73362.8,-15.49,-16.83,-16.97,0,*6E
1515902628.88,35546,7.81,73362.0,-15.49,-16.83,-16.97,0,*6D
1515902630.1,35547,7.81,73362.5,-15.49,-16.83,-16.97,0,*6C
1515902631.37,35548,7.81,73362.0,-15.47,-16.69,-16.93,0,*6D
1515902632.59,35549,7.81,73360.0,-15.49,-16.75,-16.89,0,*64
1515902633.86,35550,7.81,73366.5,-15.49,-16.69,-17.03,0,*62
1515902635.12,35551,7.81,73362.0,-15.47,-16.69,-16.93,0,*65
1515902636.37,35552,7.81,73362.0,-15.49,-16.69,-16.83,0,*69
1515902637.59,35553,7.81,73360.3,-15.49,-16.59,-16.89,0,*61
1515902638.85,35554,7.81,73358.5,-15.47,-16.65,-16.93,0,*6C
1515902640.07,35555,7.81,73364.0,-15.49,-16.75,-16.89,0,*69
1515902641.31,35556,7.81,73358.8,-15.47,-16.55,-16.93,0,*6D
1515902642.55,35557,7.81,73362.0,-15.49,-16.69,-16.89,0,*66
1515902643.82,35558,7.81,73362.5,-15.47,-16.69,-16.97,0,*68
1515902645.07,35559,7.81,73360.8,-15.47,-16.79,-16.83,0,*6D
1515902646.31,35560,7.81,73362.0,-15.49,-16.83,-17.03,0,*65
1515902647.53,35561,7.81,73364.8,-15.49,-16.83,-16.89,0,*67
1515902648.8,35562,7.81,73366.3,-15.47,-16.69,-16.83,0,*64
1515902650.06,35563,7.81,73360.3,-15.47,-16.69,-16.93,0,*64
1515902651.28,35564,7.81,73362.0,-15.49,-16.83,-16.89,0,*62
1515902652.55,35565,7.81,73364.0,-15.47,-16.69,-16.83,0,*63
1515902653.77,35566,7.81,73364.0,-15.49,-16.75,-16.97,0,*66
1515902654.99,35567,7.81,73364.3,-15.49,-16.75,-16.97,0,*67
1515902656.24,35568,7.81,73360.0,-15.49,-16.69,-16.89,0,*6A
1515902657.46,35569,7.81,73364.3,-15.49,-16.59,-16.83,0,*62
1515902658.71,35570,7.81,73360.8,-15.49,-16.69,-16.83,0,*69
1515902659.95,35571,7.81,73360.5,-15.49,-16.69,-16.89,0,*62
1515902661.19,35572,7.81,73360.8,-15.49,-16.69,-16.89,0,*61
1515902662.43,35573,7.81,73358.5,-15.49,-16.69,-16.89,0,*60
1515902663.68,35574,7.81,73358.3,-15.49,-16.69,-16.83,0,*6D
1515902664.89,35575,7.81,73360.5,-15.49,-16.59,-16.89,0,*65
1515902666.12,35576,7.81,73360.0,-15.49,-16.75,-16.97,0,*67
1515902667.34,35577,7.81,73364.3,-15.49,-16.75,-16.97,0,*66
1515902668.56,35578,7.81,73364.0,-15.49,-16.75,-16.97,0,*69
1515902669.78,35579,7.81,73360.0,-15.49,-16.83,-16.97,0,*61
1515902671.02,35580,7.81,73362.3,-15.49,-16.75,-17.03,0,*62
1515902672.29,35581,7.81,73360.5,-15.47,-16.69,-16.93,0,*68
1515902673.55,35582,7.81,73360.8,-15.47,-16.69,-16.93,0,*6B
1515902674.8,35583,7.81,73360.5,-15.49,-16.75,-17.03,0,*61
1515902676.02,35584,7.81,73364.3,-15.49,-16.75,-16.97,0,*6A
1515902677.24,35585,7.81,73362.5,-15.49,-16.83,-16.89,0,*6D
1515902678.46,35586,7.81,73360.5,-15.49,-16.83,-16.97,0,*61
1515902679.71,35587,7.81,73360.3,-15.49,-16.83,-17.11,0,*6F
1515902680.95,35588,7.81,73362.5,-15.49,-16.83,-17.03,0,*63
1515902682.17,35589,7.81,73362.0,-15.49,-16.75,-16.97,0,*67
1515902683.42,35590,7.81,73360.8,-15.49,-16.83,-17.03,0,*6A
1515902684.67,35591,7.81,73360.0,-15.49,-16.83,-17.03,0,*6B
1515902685.95,35592,7.81,73360.3,-15.47,-16.79,-17.07,0,*67
1515902687.19,35593,7.81,73360.8,-15.49,-16.83,-17.03,0,*69
1515902688.44,35594,7.81,73362.0,-15.49,-16.89,-17.11,0,*67
1515902689.68,35595,7.81,73360.0,-15.49,-16.97,-17.11,0,*69
1515902690.95,35596,7.81,73358.5,-15.51,-16.89,-17.11,0,*6C
1515902692.22,35597,7.81,73362.8,-15.51,-16.83,-17.03,0,*64
1515902693.49,35598,7.81,73362.8,-15.51,-16.89,-17.03,0,*61
1515902694.76,35599,7.81,73360.0,-15.51,-16.89,-17.03,0,*60
1515902696.03,35600,7.81,73362.8,-15.51,-16.89,-17.03,0,*63
1515902697.27,35601,7.81,73362.5,-15.51,-16.83,-16.97,0,*64
1515902698.54,35602,7.81,73362.0,-15.51,-16.83,-17.11,0,*68
1515902699.81,35603,7.81,73360.8,-15.51,-16.89,-17.03,0,*60
1515902701.08,35604,7.81,73360.3,-15.51,-16.83,-17.03,0,*6D
1515902702.35,35605,7.81,73362.5,-15.51,-16.83,-17.03,0,*6C
1515902703.6,35606,7.81,73362.0,-15.53,-16.83,-17.11,0,*6E
1515902704.87,35607,7.81,73360.5,-15.51,-16.89,-17.11,0,*67
1515902706.14,35608,7.81,73360.0,-15.51,-16.97,-17.17,0,*61
1515902707.41,35609,7.81,73362.5,-15.51,-16.97,-17.11,0,*66
1515902708.65,35610,7.81,73360.3,-15.53,-16.89,-17.17,0,*65
1515902709.9,35611,7.81,73362.5,-15.53,-16.97,-17.11,0,*6D
1515902711.17,35612,7.81,73362.3,-15.51,-16.97,-17.11,0,*6C
1515902712.43,35613,7.81,73356.5,-15.51,-16.97,-17.17,0,*6B
1515902713.7,35614,7.81,73360.5,-15.51,-16.97,-17.11,0,*6A
1515902714.97,35615,7.81,73360.8,-15.51,-16.83,-17.17,0,*68
1515902716.22,35616,7.81,73358.8,-15.53,-16.83,-17.03,0,*6C
1515902717.47,35617,7.81,73360.8,-15.53,-16.83,-17.03,0,*6D
1515902718.72,35618,7.81,73362.0,-15.53,-16.83,-17.03,0,*62
1515902719.94,35619,7.81,73360.8,-15.53,-16.75,-16.97,0,*66
1515902721.19,35620,7.81,73362.3,-15.51,-16.75,-16.89,0,*61
1515902722.41,35621,7.81,73362.0,-15.53,-16.83,-16.97,0,*64
1515902723.63,35622,7.81,73364.5,-15.53,-16.75,-16.89,0,*61
1515902724.9,35623,7.81,73362.0,-15.51,-16.69,-16.97,0,*60
1515902726.14,35624,7.81,73362.5,-15.51,-16.75,-16.89,0,*65
1515902727.36,35625,7.81,73362.0,-15.53,-16.83,-16.89,0,*6F
1515902728.58,35626,7.81,73358.8,-15.53,-16.83,-16.89,0,*6C
1515902729.8,35627,7.81,73358.3,-15.53,-16.75,-16.89,0,*64
1515902731.05,35628,7.81,73358.5,-15.51,-16.75,-16.97,0,*66
1515902732.27,35629,7.81,73364.0,-15.53,-16.83,-16.97,0,*6C
1515902733.52,35630,7.81,73358.5,-15.53,-16.83,-17.11,0,*6B
1515902734.77,35631,7.81,73360.8,-15.53,-16.83,-17.11,0,*6A
1515902736.04,35632,7.81,73362.3,-15.51,-16.89,-17.11,0,*61
1515902737.29,35633,7.81,73360.5,-15.53,-16.89,-17.11,0,*62
1515902738.56,35634,7.81,73360.5,-15.51,-16.89,-17.03,0,*64
1515902739.8,35635,7.81,73364.0,-15.53,-16.97,-17.11,0,*6B
1515902741.08,35636,7.81,73360.5,-15.53,-17.03,-17.25,0,*63
1515902742.32,35637,7.81,73362.3,-15.53,-16.97,-17.03,0,*6A
1515902743.59,35638,7.81,73364.5,-15.51,-16.97,-17.11,0,*64
1515902744.84,35639,7.81,73360.5,-15.53,-16.89,-17.11,0,*68
1515902746.13,35640,7.81,73360.0,-15.57,-17.03,-17.21,0,*62
1515902747.38,35641,7.81,73362.5,-15.53,-16.89,-17.11,0,*67
1515902748.65,35642,7.81,73364.3,-15.57,-16.93,-17.07,0,*6C
1515902749.9,35643,7.81,73362.0,-15.53,-16.89,-17.03,0,*66
1515902751.17,35644,7.81,73358.8,-15.57,-16.79,-17.07,0,*6E
1515902752.45,35645,7.81,73360.0,-15.57,-16.89,-17.07,0,*60
1515902753.72,35646,7.81,73356.8,-15.57,-16.93,-17.07,0,*68
1515902754.97,35647,7.81,73360.5,-15.53,-16.89,-17.03,0,*62
1515902756.22,35648,7.81,73362.0,-15.53,-16.89,-17.03,0,*6D
1515902757.46,35649,7.81,73360.3,-15.53,-16.89,-17.03,0,*6C
1515902758.69,35650,7.81,73360.0,-15.53,-16.83,-16.97,0,*62
1515902759.95,35651,7.81,73360.3,-15.51,-16.89,-17.11,0,*64
1515902761.21,35652,7.81,73360.0,-15.53,-16.83,-17.03,0,*6C
1515902762.46,35653,7.81,73362.3,-15.53,-16.89,-17.03,0,*67
1515902763.71,35654,7.81,73362.8,-15.57,-16.93,-17.17,0,*6A
1515902764.99,35655,7.81,73362.5,-15.57,-16.89,-17.07,0,*61
1515902766.26,35656,7.81,73362.5,-15.57,-16.89,-17.07,0,*62
1515902767.52,35657,7.81,73360.8,-15.57,-16.93,-17.17,0,*69
1515902768.78,35658,7.81,73358.3,-15.57,-16.93,-17.17,0,*66
1515902770.04,35659,7.81,73362.3,-15.57,-16.93,-17.21,0,*62
1515902771.33,35660,7.81,73360.3,-15.57,-17.03,-17.17,0,*65
1515902772.56,35661,7.81,73362.0,-15.59,-16.93,-17.17,0,*62
1515902773.85,35662,7.81,73364.5,-15.57,-17.03,-17.17,0,*67
1515902775.1,35663,7.81,73362.0,-15.59,-16.89,-17.07,0,*6A
1515902776.36,35664,7.81,73362.8,-15.57,-16.93,-17.17,0,*69
1515902777.62,35665,7.81,73364.0,-15.57,-16.89,-17.17,0,*63
1515902778.89,35666,7.81,73364.5,-15.57,-16.79,-17.03,0,*6A
1515902780.13,35667,7.81,73364.0,-15.57,-16.79,-16.93,0,*63
1515902781.4,35668,7.81,73360.3,-15.57,-16.79,-17.03,0,*64
1515902782.66,35669,7.81,73362.5,-15.57,-16.79,-17.03,0,*65
1515902783.9,35670,7.81,73362.5,-15.57,-16.75,-16.93,0,*69
1515902785.14,35671,7.81,73360.5,-15.57,-16.75,-16.93,0,*68
1515902786.44,35672,7.81,73366.8,-15.57,-16.65,-17.03,0,*62
1515902787.67,35673,7.81,73364.0,-15.57,-16.75,-16.93,0,*6A
1515902788.91,35674,7.81,73360.5,-15.57,-16.75,-16.93,0,*6D
1515902790.15,35675,7.81,73362.5,-15.57,-16.75,-16.89,0,*67
1515902791.39,35676,7.81,73360.5,-15.57,-16.75,-16.89,0,*64
1515902792.63,35677,7.81,73362.5,-15.57,-16.79,-16.93,0,*62
1515902793.87,35678,7.81,73364.3,-15.57,-16.75,-16.93,0,*61
1515902795.14,35679,7.81,73362.8,-15.57,-16.75,-17.03,0,*68
1515902796.4,35680,7.81,73362.8,-15.57,-16.65,-16.93,0,*67
1515902797.64,35681,7.81,73360.8,-15.57,-16.75,-16.93,0,*67
1515902798.91,35682,7.81,73360.8,-15.57,-16.65,-16.93,0,*65
1515902800.12,35683,7.81,73364.5,-15.59,-16.75,-16.93,0,*6B
1515902801.33,35684,7.81,73364.5,-15.59,-16.75,-16.79,0,*68
1515902802.57,35685,7.81,73362.3,-15.57,-16.75,-16.89,0,*68
1515902803.81,35686,7.81,73366.0,-15.57,-16.75,-16.89,0,*6B
1515902805.07,35687,7.81,73364.5,-15.57,-16.65,-16.89,0,*6B
1515902806.32,35688,7.81,73362.8,-15.57,-16.75,-16.89,0,*65
1515902807.55,35689,7.81,73360.3,-15.57,-16.75,-16.93,0,*6F
1515902808.76,35690,7.81,73360.3,-15.59,-16.75,-16.89,0,*62
1515902810.0,35691,7.81,73362.0,-15.57,-16.75,-16.93,0,*66
1515902811.24,35692,7.81,73360.8,-15.57,-16.75,-16.93,0,*65
1515902812.51,35693,7.81,73360.5,-15.57,-16.75,-17.03,0,*6C
1515902813.75,35694,7.81,73362.3,-15.57,-16.79,-16.93,0,*6F
1515902814.99,35695,7.81,73362.5,-15.57,-16.79,-16.93,0,*6E
1515902816.26,35696,7.81,73362.3,-15.57,-16.75,-17.03,0,*69
1515902817.49,35697,7.81,73364.5,-15.57,-16.79,-16.93,0,*6C
1515902818.73,35698,7.81,73366.0,-15.57,-16.79,-16.93,0,*63
1515902819.97,35699,7.81,73364.8,-15.57,-16.75,-16.93,0,*6E
1515902821.21,35700,7.81,73364.8,-15.57,-16.75,-16.93,0,*6F
1515902822.42,35701,7.81,73362.0,-15.59,-16.75,-16.93,0,*60
1515902823.68,35702,7.81,73362.0,-15.57,-16.79,-17.03,0,*69
1515902824.93,35703,7.81,73360.3,-15.59,-16.75,-17.03,0,*6A
1515902826.2,35704,7.81,73360.8,-15.57,-16.75,-17.03,0,*63
1515902827.47,35705,7.81,73356.3,-15.57,-16.89,-17.07,0,*65
1515902828.67,35706,7.81,73356.3,-15.59,-16.93,-16.93,0,*6F
1515902829.94,35707,7.81,73362.5,-15.57,-16.89,-17.07,0,*67
1515902831.22,35708,7.81,73362.5,-15.57,-16.89,-17.07,0,*68
1515902832.49,35709,7.81,73362.8,-15.57,-16.89,-17.07,0,*69
1515902833.76,35710,7.81,73358.8,-15.57,-16.79,-17.17,0,*6F
1515902835.03,35711,7.81,73362.5,-15.57,-16.93,-17.07,0,*6B
1515902836.27,35712,7.81,73358.5,-15.53,-16.97,-17.11,0,*6F
1515902837.53,35713,7.81,73360.8,-15.57,-16.93,-17.17,0,*68
1515902838.8,35714,7.81,73362.5,-15.57,-16.93,-17.07,0,*6E
1515902840.06,35715,7.81,73362.3,-15.59,-17.03,-17.17,0,*68
1515902841.32,35716,7.81,73358.3,-15.59,-17.03,-17.17,0,*6B
1515902842.58,35717,7.81,73360.8,-15.59,-17.03,-17.17,0,*6A
1515902843.84,35718,7.81,73360.0,-15.59,-17.03,-17.17,0,*65
1515902845.1,35719,7.81,73360.0,-15.57,-16.93,-17.17,0,*62
1515902846.39,35720,7.81,73356.0,-15.57,-17.03,-17.17,0,*60
1515902847.63,35721,7.81,73358.3,-15.59,-16.93,-17.21,0,*62
1515902848.89,35722,7.81,73358.3,-15.57,-16.93,-17.21,0,*6F
1515902850.15,35723,7.81,73362.3,-15.57,-17.03,-17.31,0,*67
1515902851.41,35724,7.81,73360.0,-15.59,-17.03,-17.17,0,*6A
1515902852.67,35725,7.81,73362.0,-15.59,-17.03,-17.17,0,*6B
1515902853.93,35726,7.81,73358.8,-15.57,-16.93,-17.17,0,*6E
1515902855.19,35727,7.81,73358.8,-15.57,-16.93,-17.17,0,*6F
1515902856.48,35728,7.81,73356.8,-15.57,-17.03,-17.21,0,*6D
1515902857.72,35729,7.81,73358.8,-15.59,-16.93,-17.21,0,*6A
1515902858.95,35730,7.81,73360.8,-15.59,-16.93,-17.21,0,*62
1515902860.18,35731,7.81,73358.8,-15.59,-16.93,-17.21,0,*63
1515902861.43,35732,7.81,73360.0,-15.59,-16.89,-17.07,0,*6F
1515902862.66,35733,7.81,73358.5,-15.59,-16.93,-17.17,0,*64
1515902863.89,35734,7.81,73360.8,-15.59,-16.93,-17.07,0,*62
1515902865.16,35735,7.81,73362.5,-15.59,-17.03,-17.07,0,*6B
1515902866.43,35736,7.81,73362.5,-15.59,-17.03,-17.17,0,*69
1515902867.69,35737,7.81,73362.8,-15.59,-17.03,-17.21,0,*6D
1515902868.92,35738,7.81,73360.5,-15.59,-16.93,-17.21,0,*6A
1515902870.15,35739,7.81,73360.3,-15.59,-16.93,-17.21,0,*6B
1515902871.39,35740,7.81,73362.3,-15.59,-16.93,-17.21,0,*65
1515902872.66,35741,7.81,73360.0,-15.59,-17.03,-17.07,0,*68
1515902873.88,35742,7.81,73362.3,-15.59,-16.93,-17.17,0,*62
1515902875.17,35743,7.81,73362.5,-15.61,-17.11,-17.25,0,*62
1515902876.4,35744,7.81,73358.3,-15.59,-16.93,-17.21,0,*61
1515902877.67,35745,7.81,73360.0,-15.59,-17.03,-17.21,0,*68
1515902878.93,35746,7.81,73360.5,-15.61,-16.97,-17.21,0,*6C
1515902880.17,35747,7.81,73364.8,-15.59,-16.93,-17.21,0,*62
1515902881.44,35748,7.81,73362.8,-15.59,-17.03,-17.07,0,*61
1515902882.7,35749,7.81,73358.5,-15.61,-16.93,-17.11,0,*64
1515902883.97,35750,7.81,73362.8,-15.61,-16.97,-17.21,0,*6B
1515902885.26,35751,7.81,73364.0,-15.61,-17.07,-17.11,0,*61
1515902886.55,35752,7.81,73360.3,-15.61,-17.07,-17.25,0,*65
1515902887.8,35753,7.81,73360.3,-15.63,-17.11,-17.35,0,*60
1515902889.09,35754,7.81,73358.5,-15.61,-17.07,-17.21,0,*67
1515902890.35,35755,7.81,73362.3,-15.61,-16.97,-17.21,0,*6E
1515902891.6,35756,7.81,73362.0,-15.63,-16.97,-17.21,0,*6F
1515902892.86,35757,7.81,73358.8,-15.61,-16.97,-17.21,0,*6C
1515902894.1,35758,7.81,73364.3,-15.63,-16.97,-17.21,0,*61
1515902895.35,35759,7.81,73358.3,-15.63,-16.97,-17.21,0,*60
1515902896.61,35760,7.81,73362.5,-15.61,-16.97,-17.25,0,*6C
1515902897.85,35761,7.81,73360.3,-15.63,-16.93,-17.21,0,*6F
1515902899.11,35762,7.81,73362.0,-15.61,-16.97,-17.21,0,*6A
1515902900.38,35763,7.81,73360.8,-15.61,-16.97,-17.21,0,*6B